User: anonymous   Login
Location: Maiden_LMO
(35.5760°N, 81.2120°W)
Time: 21:53:39
(UTC-05:00)
Language:

ADEOS II - Orbit

View from above orbital plane
View from above orbital plane
View from above satellite
View from above satellite

Ground track
Ground track

The orbit data is extracted from the following two-line orbital elements,

1 27597U 02056A   16340.49504911  .00000076  00000-0  47929-4 0  9998
2 27597  98.3438 312.5713 0001445 127.8287 232.3025 14.27252730727790
Epoch (UTC): 05 December 2016 11:52:52
Eccentricity: 0.0001445
inclination: 98.3438°
perigee height: 800 km
apogee height: 802 km
right ascension of ascending node: 312.5713°
argument of perigee: 127.8287°
revolutions per day: 14.27252730
mean anomaly at epoch: 232.3025°
orbit number at epoch: 72779

The dashed part of the orbit path shows where the satellite is in the earth's shadow,  

DLR